Date String (YYYY-MM-DD hh:mm:ss) UTC,Instrument flags,Ambient pressure (hPa),Sample flow (lpm),Bypass flow (lpm),Sample temperature (°C),Ambient temperature (°C),ASC tube jacket temperature (°C),LED temperature (°C),Box temperature (°C),Sample RH (%),Span deviation,Mass concentration (μg/m³),Mass concentration (μg/m³),Mass concentration (μg/m³)
DateTimeUTC,F1_M11,P_M11,Q1_M11,Q2_M11,T1_M11,T2_M11,T3_M11,T4_M11,T5_M11,U1_M11,ZSPAN_M11,X0_M11,X2_M11,X1_M11
2022-10-19 23:00:00,,0830.3,4.99,0.00,29.7,26.2,00.0,38.3,31.5,08.8,0000.0,0014.70,0002.49,0001.16
2022-10-19 23:01:00,,0830.4,5.01,0.00,29.6,26.1,00.0,38.3,31.4,08.8,0000.0,0014.81,0002.53,0001.17
2022-10-19 23:02:00,,0830.3,5.01,0.00,29.6,26.4,00.0,38.3,31.2,08.9,0000.0,0015.13,0002.51,0001.18
2022-10-19 23:03:00,,0830.4,4.98,0.00,29.5,26.7,00.0,38.3,31.1,09.0,0000.0,0015.36,0002.52,0001.18
2022-10-19 23:04:00,,0830.4,5.01,0.00,29.5,27.1,00.0,38.2,31.2,09.1,0000.0,0015.91,0002.56,0001.19
2022-10-19 23:05:00,,0830.4,4.99,0.00,29.5,27.4,00.0,38.3,31.3,09.1,0000.0,0015.04,0002.55,0001.20
2022-10-19 23:06:00,,0830.4,5.00,0.00,29.5,27.7,00.0,38.3,31.3,09.1,0000.0,0014.89,0002.50,0001.19
2022-10-19 23:07:00,,0830.4,5.02,0.00,29.5,27.9,00.0,38.3,31.4,09.1,0000.0,0014.78,0002.52,0001.19
2022-10-19 23:08:00,,0830.4,5.00,0.00,29.5,28.1,00.0,38.3,31.5,09.1,0000.0,0014.60,0002.50,0001.18
2022-10-19 23:09:00,,0830.4,5.00,0.00,29.6,28.2,00.0,38.3,31.5,09.1,0000.0,0013.61,0002.52,0001.18
2022-10-19 23:10:00,,0830.5,5.00,0.00,29.6,28.4,00.0,38.3,31.6,09.2,0000.0,0012.80,0002.54,0001.17
2022-10-19 23:11:00,,0830.4,5.00,0.00,29.6,28.5,00.0,38.3,31.6,09.2,0000.0,0011.77,0002.44,0001.16
2022-10-19 23:12:00,,0830.4,4.99,0.00,29.7,28.6,00.0,38.4,31.7,09.0,0000.0,0011.25,0002.41,0001.17
2022-10-19 23:13:00,,0830.4,5.02,0.00,29.7,28.7,00.0,38.4,31.7,08.9,0000.0,0010.91,0002.51,0001.18
2022-10-19 23:14:00,,0830.4,4.99,0.00,29.7,28.7,00.0,38.4,31.8,08.8,0000.0,0011.13,0002.55,0001.18
2022-10-19 23:15:00,,0830.3,5.00,0.00,29.8,27.5,00.0,38.4,31.7,08.6,0000.0,0010.92,0002.55,0001.18
2022-10-19 23:16:00,,0830.3,5.00,0.00,29.7,26.8,00.0,38.4,31.6,08.6,0000.0,0010.33,0002.51,0001.18
2022-10-19 23:17:00,,0830.3,5.01,0.00,29.7,26.9,00.0,38.3,31.5,08.8,0000.0,0010.95,0002.58,0001.20
2022-10-19 23:18:00,,0830.3,5.01,0.00,29.6,27.2,00.0,38.3,31.4,08.9,0000.0,0011.03,0002.60,0001.21
2022-10-19 23:19:00,,0830.3,4.98,0.00,29.6,27.4,00.0,38.3,31.4,09.0,0000.0,0010.58,0002.64,0001.22
2022-10-19 23:20:00,,0830.3,5.01,0.00,29.6,27.7,00.0,38.3,31.5,09.0,0000.0,0010.18,0002.67,0001.22
2022-10-19 23:21:00,,0830.4,5.01,0.00,29.6,27.9,00.0,38.4,31.5,08.9,0000.0,0010.94,0002.67,0001.23
2022-10-19 23:22:00,,0830.3,5.00,0.00,29.6,28.2,00.0,38.4,31.6,08.8,0000.0,0011.26,0002.78,0001.24
2022-10-19 23:23:00,,0830.3,5.00,0.00,29.7,28.3,00.0,38.4,31.6,08.8,0000.0,0011.72,0002.79,0001.25
2022-10-19 23:24:00,,0830.4,4.99,0.00,29.7,28.5,00.0,38.4,31.7,08.9,0000.0,0011.19,0002.67,0001.25
2022-10-19 23:25:00,,0830.4,5.02,0.00,29.7,28.6,00.0,38.4,31.7,09.0,0000.0,0010.03,0002.58,0001.25
2022-10-19 23:26:00,,0830.3,4.99,0.00,29.8,28.7,00.0,38.5,31.8,08.8,0000.0,0010.42,0002.53,0001.25
2022-10-19 23:27:00,,0830.4,5.00,0.00,29.8,28.8,00.0,38.5,31.8,08.8,0000.0,0011.09,0002.62,0001.26
2022-10-19 23:28:00,,0830.4,5.00,0.00,29.8,28.0,00.0,38.5,31.8,08.9,0000.0,0011.38,0002.63,0001.25
2022-10-19 23:29:00,,0830.4,5.01,0.00,29.8,26.5,00.0,38.4,31.6,08.9,0000.0,0012.04,0002.60,0001.25
2022-10-19 23:30:00,,0830.4,5.00,0.00,29.7,26.1,00.0,38.4,31.5,09.0,0000.0,0012.34,0002.56,0001.25
2022-10-19 23:31:00,,0830.4,5.01,0.00,29.7,26.3,00.0,38.3,31.4,09.1,0000.0,0013.58,0002.49,0001.24
2022-10-19 23:32:00,,0830.4,5.00,0.00,29.6,26.6,00.0,38.3,31.2,09.2,0000.0,0013.18,0002.47,0001.24
2022-10-19 23:33:00,,0830.4,4.99,0.00,29.5,26.9,00.0,38.3,31.3,09.3,0000.0,0012.74,0002.41,0001.22
2022-10-19 23:34:00,,0830.4,5.00,0.00,29.5,27.3,00.0,38.3,31.3,09.4,0000.0,0012.14,0002.34,0001.20
2022-10-19 23:35:00,,0830.4,5.00,0.00,29.5,27.6,00.0,38.3,31.4,09.4,0000.0,0012.80,0002.37,0001.18
2022-10-19 23:36:00,,0830.4,5.00,0.00,29.5,27.8,00.0,38.3,31.4,09.3,0000.0,0013.50,0002.44,0001.18
2022-10-19 23:37:00,,0830.4,5.00,0.00,29.6,28.0,00.0,38.3,31.5,09.2,0000.0,0013.73,0002.56,0001.18
2022-10-19 23:38:00,,0830.5,5.01,0.00,29.6,28.2,00.0,38.3,31.5,09.2,0000.0,0013.46,0002.54,0001.16
2022-10-19 23:39:00,,0830.4,4.99,0.00,29.6,28.3,00.0,38.4,31.6,09.2,0000.0,0012.75,0002.55,0001.16
2022-10-19 23:40:00,,0830.4,4.99,0.00,29.6,28.5,00.0,38.4,31.6,09.1,0000.0,0011.96,0002.63,0001.16
2022-10-19 23:41:00,,0830.5,5.01,0.00,29.7,28.6,00.0,38.4,31.7,09.1,0000.0,0012.11,0002.65,0001.16
2022-10-19 23:42:00,,0830.5,5.01,0.00,29.7,28.7,00.0,38.4,31.7,09.1,0000.0,0012.52,0002.64,0001.16
2022-10-19 23:43:00,,0830.5,4.98,0.00,29.7,28.8,00.0,38.4,31.8,09.1,0000.0,0012.59,0002.60,0001.17
2022-10-19 23:44:00,,0830.4,5.00,0.00,29.8,28.8,00.0,38.5,31.8,08.9,0000.0,0012.97,0002.59,0001.16
2022-10-19 23:45:00,,0830.5,5.01,0.00,29.8,28.9,00.0,38.5,31.9,08.9,0000.0,0013.10,0002.62,0001.17
2022-10-19 23:46:00,,0830.4,5.00,0.00,29.8,28.3,00.0,38.5,31.8,08.8,0000.0,0012.92,0002.69,0001.18
2022-10-19 23:47:00,,0830.4,4.99,0.00,29.8,27.0,00.0,38.5,31.6,08.9,0000.0,0012.48,0002.73,0001.18
2022-10-19 23:48:00,,0830.5,5.00,0.00,29.8,26.8,00.0,38.4,31.6,08.9,0000.0,0011.92,0002.74,0001.19
2022-10-19 23:49:00,,0830.5,5.01,0.00,29.7,27.0,00.0,38.4,31.5,08.9,0000.0,0012.00,0002.83,0001.19
2022-10-19 23:50:00,,0830.4,5.01,0.00,29.7,27.3,00.0,38.4,31.5,08.7,0000.0,0011.74,0002.88,0001.20
2022-10-19 23:51:00,,0830.4,4.99,0.00,29.7,27.6,00.0,38.4,31.5,08.6,0000.0,0012.14,0002.78,0001.17
2022-10-19 23:52:00,,0830.4,5.01,0.00,29.7,27.8,00.0,38.4,31.6,08.7,0000.0,0012.33,0002.81,0001.17
2022-10-19 23:53:00,,0830.5,5.00,0.00,29.7,28.0,00.0,38.4,31.6,08.7,0000.0,0011.21,0002.82,0001.17
2022-10-19 23:54:00,,0830.4,5.00,0.00,29.7,28.2,00.0,38.4,31.7,08.7,0000.0,0010.74,0002.89,0001.17
2022-10-19 23:55:00,,0830.4,5.00,0.00,29.7,28.3,00.0,38.5,31.7,08.7,0000.0,0010.53,0002.90,0001.17
2022-10-19 23:56:00,,0830.4,5.00,0.00,29.7,28.5,00.0,38.5,31.7,08.6,0000.0,0010.88,0002.92,0001.18
2022-10-19 23:57:00,,0830.4,5.00,0.00,29.8,28.6,00.0,38.5,31.7,08.6,0000.0,0010.89,0002.86,0001.17
2022-10-19 23:58:00,,0830.5,5.00,0.00,29.8,28.7,00.0,38.5,31.8,08.5,0000.0,0010.53,0002.72,0001.16
2022-10-19 23:59:00,,0830.5,5.00,0.00,29.8,28.7,00.0,38.5,31.8,08.5,0000.0,0010.29,0002.62,0001.15
